OBJECT D, 69323

Orbit data source: Space-Track

You're viewing an Uncataloged Satellite

Recently launched and/or uncataloged satellites may have evolving metadata. Metadata may include but not limited to: Owner, Maufacturer, Bus, Motor, and Mission.

OBJECT D, 69323 is a satellite owned by Zhongguo Xingwang (CN) in LEO that was launched on Sat, 30 May 2026 UTC via a CHANG ZHENG 2D launch vehicle from the Xichang Space Center, China (XSC). Unknown objects in Earth's orbit typically refer to objects detected orbiting the Earth but have not yet been identified or cataloged. These objects could be anything from previously untracked satellites, spent rocket stages, debris from satellite collisions, or even natural meteoroids temporarily captured by Earth's gravity.

Loading next visibility...
Identifier
69323, 2026-120D
Orbit
LEO
Country
Flag of CNCN / PRC
Related business
Manufacturer
CAST?
Mission
Operational spacecraft
Bus & Motor
Unknown
Mass
~300 kg wet, ~300 kg dry
Launch date (UTC)
2026-05-30 (2 weeks ago)
Launch vehicle
CHANG ZHENG 2D
Launch site
Xichang Space Center, China (XSC)
Object type
Unknown
Shape & HBR
Unknown
Radar Cross Section
RCS unknown

Expand to show TLE details & history
Last TLE update: 1 week ago

TLE from 1 week ago
0 OBJECT D
1 69323U 26120D   26152.22585963  .00034091  00000-0  85462-3 0  9995
2 69323  54.9977  99.6090 0009732 298.7088  61.2962 15.39750006   239
Epoch: 2026-06-01T05:25Z
TLE epoch observation values (Epoch: 2026-06-01T05:25:14.272Z)
Latitude
Longitude
128.5833°
Altitude
444.763 km
Speed
7.648 km/s
True Right ascension
06h 38m 26s
True Declination
0° 00' 00"
Sunlit
Object was in daylight at epoch
Visualization orbit readout
Latitude
Unknown
Longitude
Unknown
Altitude
Unknown
Speed
Unknown
Apparent Right ascension
Unknown
Apparent Declination
Unknown
Sunlit
N/A
Visualization observer readout
Local Sidereal Time
14:09:02
Azimuth
Unknown
Elevation
Unknown
Doppler factor
Unknown
Orbital elements
Apogee altitude
453.453 km
Perigee altitude
440.168 km
Semi-major axis
6,824.947 km
Eccentricity
0.00097
Inclination
54.9977°
RAAN
99.609°
Arg. of periapsis
298.7088°
True anomaly
61.39407°
Mean anomaly
61.2962°
Eccentric anomaly
61.34513°
Mean motion
3.84941 °/min
Orbital period
93.52 mins
BSTAR
0.00085462
Loading maneuver chart data...
Computing Atmospheric mass density...
Loading historical data...
Loading historical data...
Loading historical data...
Loading historical data...
Loading historical data...
Loading historical data...
Loading historical data...
Other satellites on launch #120 in the year 2026 (2026-05-30 UTC)

Documentation

Showing up to 5 results
|